Regional Weather Roundup
Issued by NWS Newport/Morehead, NC

Current Version | Previous Version | Graphics & Text | Print | Product List | Glossary Off
Versions: 1 2 3 4 5 6 7 8 9 10 11 12 13 14 15 16 17 18 19 20 21 22 23 24 25 26 27 28 29 30 31 32 33 34 35 36 37 38 39 40 41 42 43 44 45 46 47 48 49 50

000
ASUS42 KMHX 270313
RWRMHX
WEATHER ROUNDUP FOR EASTERN NORTH CAROLINA
NATIONAL WEATHER SERVICE NEWPORT/MOREHEAD CITY NC
1100 PM EDT SAT MAY 26 2018

NOTE: "FAIR" INDICATES FEW OR NO CLOUDS BELOW 12,000 FEET
WITH NO SIGNIFICANT WEATHER AND/OR OBSTRUCTIONS TO VISIBILITY

NCZ015>017-031-032-045>047-102-103-270400-
NORTH COAST

CITY           SKY/WX    TMP DP  RH WIND       PRES   REMARKS
EDENTON        FAIR      78  72  80 SW10      29.98R
ELIZABETH CITY FAIR      78  72  81 S13G20    29.96R
KITTY HAWK     FAIR      76  69  80 SW6       29.97R
MANTEO         FAIR      76  70  81 SW15      29.98S

$$

NCZ045>047-081-094-103-104-270400-
CENTRAL COAST

CITY           SKY/WX    TMP DP  RH WIND       PRES   REMARKS
FRISCO         FAIR      75  73  93 SW9       30.01R

$$

NCZ095-097-098-100-101-270400-
SOUTHERN COAST

CITY           SKY/WX    TMP DP  RH WIND       PRES   REMARKS
BEAUFORT       FAIR      76  73  91 SW13      30.01R
CEDAR ISLAND   NOT AVBL
JACKSONVILLE   FAIR      74  73  97 S5        30.00R
PINEY ISLAND   NOT AVBL
WILMINGTON     FAIR      75  70  84 SW7       30.01R


$$

NCZ011>013-027>030-043-044-078>080-089-090>093-098-270400-
COASTAL PLAIN

CITY           SKY/WX    TMP DP  RH WIND       PRES   REMARKS
AHOSKIE        FAIR      74  73  95 S3        29.96R
CLINTON        FAIR      74  71  89 S5        29.98S
ELIZABETHTOWN  FAIR      74  69  85 S9        29.99S
GOLDSBORO      FAIR      76  69  79 S7G17     29.96R
GREENVILLE     FAIR      77  70  78 SW10      29.99R
HAVELOCK       NOT AVBL
KENANSVILLE    FAIR      73  70  88 S5        29.99S
KINSTON        FAIR      76  68  77 S12G20    29.99R
NEW BERN       FAIR      73  71  93 S7        30.00R
RICHLANDS      FAIR      73  70  90 S9        30.00S
ROCKY MOUNT    FAIR      73  70  90 S5        29.96R
WASHINGTON     FAIR      75  71  86 S7        29.98S
WHITEVILLE     FAIR      74  70  87 S6        29.99F

$$

AMZ130-135-150-152-154-156-158-170-250-252-270-ANZ085-086-088-633-658-670-270400-
MARINE OBSERVATIONS

STATION/POSITION TIME  TEMP    WIND        PRES    WAVE   SWELL
                       AIR SEA DIR/SP/G            HT/PER HT/PER
                 (UTC) (F)     (DEG/KT/KT) (MB)    (FT/S) (FT/S)
CHESAPEAKE LIGHT NOT AVBL
64 E VA BEACH    0250   74 71  210/ 16/ 17 1015.0    3/ 4   2/ 8
DUCK             0242   78 60  200/ 12/ 17 1014.2
2 E DUCK         0300      65                N/A     1/ 9
OREGON INLET     0242   78 81  200/ 21/ 24 1015.0
13E OREGON INLT  0248      70                N/A     2/ 4   2/ 8
HATTERAS CG      0242   75 78  220/  8/ 11 1015.8
DIAMOND BUOY     0300   78 78  210/ 16/ 19 1016.5
CAPE LOOKOUT     0300          210/  8/ 11 1016.6
BEAUFORT LAB     0242   76 79  210/  9/ 13 1016.4
30 SE NEW RVR IN 0208   78 77  200/ 12/ 14 1016.2
30 SE NEW RVR IN 0300      77                N/A     3/ 8
27 SE WRIGHTSVLE 0208   77 77  200/ 14/ 19 1016.4
5 SE WRIGHTSVLE  0208   75 75   30/ 10/ 14 1015.4
225 S CAPE HAT   0250      79  170/ 12/ 14 1017.8    3/ 8   2/ 8
41 SE CHARLESTON 0250      77  170/ 10/ 12 1015.9    3/ 8   2/ 8

$$



USA.gov is the U.S. government's official web portal to all federal, state and local government web resources and services.